Overview Statistics Trail Chart Weather Telemetry Raw packets
 

This is the latest recevied weather packets stored in our database for station/object F8KHU-13. If no packets are shown the sender has not sent any weather packets the latest 10 day(s).

<< 8 9 10 11 12 13 14 >>
Time Temp. Humidity Pressure Rain* Wind** Luminosity Snow
1788586866 12.78° C 34% 1021.2 hPa 0 mm - 0 W/m² -
1788586846 12.78° C 34% 1021.3 hPa 0 mm - 0 W/m² -
1788586826 12.78° C 34% 1021.3 hPa 0 mm - 0 W/m² -
1788585961 12.78° C 34% 1021 hPa 0 mm - 0 W/m² -
1788585941 12.78° C 34% 1020.9 hPa 0 mm - 0 W/m² -
1788585921 12.78° C 34% 1020.9 hPa 0 mm - 0 W/m² -
1788585063 12.78° C 34% 1020.7 hPa 0 mm - 0 W/m² -
1788585043 12.78° C 34% 1020.8 hPa 0 mm - 0 W/m² -
1788584163 12.78° C 34% 1020.5 hPa 0 mm - 0 W/m² -
1788584143 12.78° C 34% 1020.6 hPa 0 mm - 0 W/m² -
1788584123 12.78° C 34% 1020.5 hPa 0 mm - 0 W/m² -
1788558945 17.78° C 47% 1018.1 hPa 0 mm - 0 W/m² -
1788558925 17.78° C 46% 1018 hPa 0 mm - 0 W/m² -
1788558065 17.78° C 46% 1018.2 hPa 0 mm - 0 W/m² -
1788558045 16.67° C 45% 1018.2 hPa 0 mm - 0 W/m² -
1788558025 17.78° C 46% 1018.3 hPa 0 mm - 0 W/m² -
1788557145 16.67° C 51% 1018 hPa 0 mm - 0 W/m² -
1788557125 16.67° C 51% 1018 hPa 0 mm - 0 W/m² -
1788556225 17.22° C 53% 1017.7 hPa 0 mm - 0 W/m² -
1788555345 17.22° C 53% 1018 hPa 0 mm - 0 W/m² -
1788554465 16.67° C 52% 1017.6 hPa 0 mm - 0 W/m² -
1788554446 17.78° C 53% 1017.6 hPa 0 mm - 0 W/m² -
1788554426 17.78° C 53% 1017.6 hPa 0 mm - 0 W/m² -
1788553546 17.78° C 53% 1017.8 hPa 0 mm - 0 W/m² -
1788553526 17.78° C 53% 1017.7 hPa 0 mm - 0 W/m² -

* Rain latest hour (hover to see other rain measurements)
** Current wind speed in m/s (hover to see current wind gust speed)